User: anonymous
Location: Unspecified
(0.0000°N, 0.0000°E)
Time: 22:19:00
(UTC+00:00)
Language:

Aussat K1 - Orbit

View from above orbital plane
View from above orbital plane
View from above satellite
View from above satellite

Ground track
Ground track

The orbit data is extracted from the following two-line orbital elements,

1 15993U 85076B   14273.76893385  .00000002  00000-0  00000+0 0  8483
2 15993 014.8852 018.0543 0003130 191.2943 149.8577 00.99754885 76913
Epoch (UTC): 30 September 2014 18:27:15
Eccentricity: 0.0003130
inclination: 14.8852°
perigee height: 35918 km
apogee height: 35945 km
right ascension of ascending node: 18.0543°
argument of perigee: 191.2943°
revolutions per day: 0.99754885
mean anomaly at epoch: 149.8577°
orbit number at epoch: 7691

The dashed part of the orbit path shows where the satellite is in the earth's shadow,  

DLR